Location: Buch
(49.7331°N, 12.1098°E)
Time: 00:43:19
(UTC+00:00)

SWARM A - Pass Details

Date: 12 May 2021
Orbit: 427 x 431 km, 87.4° (Epoch: 18 June)

Event Time Altitude Azimuth Distance (km) Brightness Sun altitude
Rises 20:03:38 0° 360° (N) 2,419 8.8 -10.7°
Reaches altitude 10° 20:05:41 10° 3° (N) 1,544 7.7 -10.9°
Maximum altitude 20:09:01 66° 86° (E) 475 4.2 -11.3°
Enters shadow 20:11:37 15° 168° (SSE) 1,243 6.0 -11.6°
